| time (UTC) | temp C | wind direction | speed KPH | gust KPH | rain 1hr cm | rain 24hr cm | rain mn cm | humidity % | barometer mb |
| 20260508012845 | 4 | 178 | 1.6 | 6.4 | 0.00 | 0.00 | 0.00 | 60 | 1022.3 |
| 20260508012325 | 4 | 171 | 3.2 | 9.7 | 0.00 | 0.00 | 0.00 | 60 | 1022.3 |
| 20260508011825 | 4 | 149 | 1.6 | 8.0 | 0.00 | 0.00 | 0.00 | 60 | 1022.2 |
| 20260508011326 | 4 | 170 | 1.6 | 8.0 | 0.00 | 0.00 | 0.00 | 60 | 1022.1 |
| 20260508010826 | 4 | 171 | 1.6 | 8.0 | 0.00 | 0.00 | 0.00 | 61 | 1022.1 |
| 20260508010326 | 5 | 138 | 3.2 | 8.0 | 0.00 | 0.00 | 0.00 | 60 | 1022.0 |
| 20260508005827 | 5 | 192 | 3.2 | 11.3 | 0.00 | 0.00 | 0.00 | 59 | 1021.9 |
| 20260508005336 | 5 | 182 | 1.6 | 11.3 | 0.00 | 0.00 | 0.00 | 59 | 1021.9 |
| 20260508004826 | 5 | 146 | 4.8 | 11.3 | 0.00 | 0.00 | 0.00 | 59 | 1021.9 |
| 20260508004326 | 5 | 138 | 4.8 | 11.3 | 0.00 | 0.00 | 0.00 | 58 | 1021.8 |
| 20260508003826 | 5 | 194 | 3.2 | 8.0 | 0.00 | 0.00 | 0.00 | 58 | 1021.8 |
| 20260508003334 | 5 | 169 | 3.2 | 11.3 | 0.00 | 0.00 | 0.00 | 58 | 1021.7 |
| 20260508002842 | 5 | 172 | 6.4 | 11.3 | 0.00 | 0.00 | 0.00 | 58 | 1021.7 |
| 20260508002329 | 5 | 129 | 6.4 | 11.3 | 0.00 | 0.00 | 0.00 | 59 | 1021.6 |
| 20260508001849 | 5 | 176 | 4.8 | 9.7 | 0.00 | 0.00 | 0.00 | 59 | 1021.6 |
| 20260508001330 | 5 | 169 | 3.2 | 9.7 | 0.00 | 0.00 | 0.00 | 59 | 1021.5 |
| 20260508000850 | 5 | 167 | 4.8 | 9.7 | 0.00 | 0.00 | 0.00 | 59 | 1021.5 |
| 20260508000350 | 5 | 142 | 1.6 | 14.5 | 0.00 | 0.00 | 0.00 | 59 | 1021.4 |
| 20260507235829 | 5 | 84 | 3.2 | 14.5 | 0.00 | 0.00 | 0.00 | 60 | 1021.4 |
| 20260507235330 | 5 | 146 | 3.2 | 8.0 | 0.00 | 0.00 | 0.00 | 58 | 1021.4 |
| 20260507234830 | 5 | 155 | 3.2 | 4.8 | 0.00 | 0.00 | 0.00 | 58 | 1021.3 |
| 20260507234331 | 5 | 184 | 3.2 | 12.9 | 0.00 | 0.00 | 0.00 | 58 | 1021.2 |
| 20260507233831 | 5 | 160 | 4.8 | 12.9 | 0.00 | 0.00 | 0.00 | 57 | 1021.1 |
| 20260507233351 | 5 | 153 | 4.8 | 9.7 | 0.00 | 0.00 | 0.00 | 57 | 1021.1 |
| 20260507232830 | 5 | 199 | 6.4 | 11.3 | 0.00 | 0.00 | 0.00 | 57 | 1021.0 |
| 20260507232330 | 5 | 176 | 4.8 | 12.9 | 0.00 | 0.00 | 0.00 | 57 | 1020.9 |
| 20260507231831 | 5 | 184 | 4.8 | 12.9 | 0.00 | 0.00 | 0.00 | 57 | 1020.9 |
| 20260507231340 | 5 | 167 | 4.8 | 9.7 | 0.00 | 0.00 | 0.00 | 56 | 1021.0 |
| 20260507230829 | 5 | 145 | 4.8 | 12.9 | 0.00 | 0.00 | 0.00 | 56 | 1020.9 |
| 20260507230350 | 6 | 140 | 4.8 | 11.3 | 0.00 | 0.00 | 0.00 | 56 | 1020.9 |
| 20260507225829 | 6 | 167 | 6.4 | 12.9 | 0.00 | 0.00 | 0.00 | 56 | 1020.8 |
| 20260507225329 | 6 | 180 | 4.8 | 14.5 | 0.00 | 0.00 | 0.00 | 56 | 1020.8 |
| 20260507224830 | 6 | 148 | 6.4 | 14.5 | 0.00 | 0.00 | 0.00 | 55 | 1020.8 |
| 20260507224330 | 6 | 187 | 6.4 | 9.7 | 0.00 | 0.00 | 0.00 | 56 | 1020.7 |
| 20260507223830 | 6 | 157 | 6.4 | 12.9 | 0.00 | 0.00 | 0.00 | 55 | 1020.7 |
| 20260507223351 | 6 | 188 | 4.8 | 12.9 | 0.00 | 0.00 | 0.00 | 55 | 1020.7 |
| 20260507222830 | 6 | 146 | 4.8 | 9.7 | 0.00 | 0.00 | 0.00 | 55 | 1020.6 |
| 20260507222351 | 6 | 186 | 4.8 | 17.7 | 0.00 | 0.00 | 0.00 | 55 | 1020.6 |
| 20260507221826 | 6 | 152 | 4.8 | 17.7 | 0.00 | 0.00 | 0.00 | 54 | 1020.6 |
| 20260507221326 | 6 | 151 | 4.8 | 12.9 | 0.00 | 0.00 | 0.00 | 54 | 1020.5 |
| 20260507220827 | 6 | 166 | 4.8 | 11.3 | 0.00 | 0.00 | 0.00 | 54 | 1020.5 |
| 20260507220327 | 6 | 165 | 3.2 | 12.9 | 0.00 | 0.00 | 0.00 | 54 | 1020.4 |
| 20260507215827 | 6 | 166 | 4.8 | 12.9 | 0.00 | 0.00 | 0.00 | 55 | 1020.4 |
| 20260507215348 | 6 | 163 | 3.2 | 9.7 | 0.00 | 0.00 | 0.00 | 54 | 1020.4 |
| 20260507214847 | 6 | 156 | 3.2 | 8.0 | 0.00 | 0.00 | 0.00 | 54 | 1020.4 |
| 20260507214335 | 6 | 169 | 3.2 | 6.4 | 0.00 | 0.00 | 0.00 | 54 | 1020.3 |
| 20260507213824 | 6 | 171 | 3.2 | 6.4 | 0.00 | 0.00 | 0.00 | 54 | 1020.3 |
| 20260507213325 | 6 | 172 | 3.2 | 6.4 | 0.00 | 0.00 | 0.00 | 55 | 1020.3 |
| 20260507212833 | 6 | 134 | 3.2 | 6.4 | 0.00 | 0.00 | 0.00 | 56 | 1020.2 |
| 20260507212402 | 6 | 180 | 3.2 | 6.4 | 0.00 | 0.00 | 0.00 | 58 | 1020.1 |
| 20260507211850 | 6 | 154 | 3.2 | 9.7 | 0.00 | 0.00 | 0.00 | 58 | 1020.0 |
| 20260507211356 | 6 | 115 | 1.6 | 9.7 | 0.00 | 0.00 | 0.00 | 56 | 1019.9 |
| 20260507210845 | 6 | 146 | 3.2 | 12.9 | 0.00 | 0.00 | 0.00 | 57 | 1019.9 |
| 20260507210330 | 6 | 157 | 3.2 | 12.9 | 0.00 | 0.00 | 0.00 | 55 | 1019.8 |
| 20260507205857 | 6 | 160 | 1.6 | 9.7 | 0.00 | 0.00 | 0.00 | 55 | 1019.7 |
| 20260507205324 | 6 | 154 | 1.6 | 8.0 | 0.00 | 0.00 | 0.00 | 58 | 1019.6 |
| 20260507204852 | 6 | 129 | 3.2 | 6.4 | 0.00 | 0.00 | 0.00 | 58 | 1019.6 |
| 20260507204351 | 6 | 142 | 1.6 | 4.8 | 0.00 | 0.00 | 0.00 | 64 | 1019.6 |
| 20260507203839 | 6 | 142 | 3.2 | 4.8 | 0.00 | 0.00 | 0.00 | 64 | 1019.6 |
| 20260507203329 | 6 | 125 | 1.6 | 4.8 | 0.00 | 0.00 | 0.00 | 64 | 1019.5 |
| 20260507202850 | 6 | 125 | 3.2 | 4.8 | 0.00 | 0.00 | 0.00 | 61 | 1019.6 |
| 20260507202330 | 7 | 125 | 3.2 | 4.8 | 0.00 | 0.00 | 0.00 | 62 | 1019.5 |
| 20260507201830 | 8 | 125 | 1.6 | 3.2 | 0.00 | 0.00 | 0.00 | 59 | 1019.5 |
| 20260507201331 | 8 | 125 | 1.6 | 6.4 | 0.00 | 0.00 | 0.00 | 55 | 1019.4 |
| 20260507200831 | 8 | 121 | 3.2 | 6.4 | 0.00 | 0.00 | 0.00 | 52 | 1019.3 |
| 20260507200400 | 8 | 169 | 3.2 | 8.0 | 0.00 | 0.00 | 0.00 | 51 | 1019.1 |
| 20260507195828 | 9 | 150 | 3.2 | 8.0 | 0.00 | 0.00 | 0.00 | 50 | 1019.0 |
| 20260507195329 | 9 | 188 | 1.6 | 8.0 | 0.00 | 0.00 | 0.00 | 48 | 1019.0 |
| 20260507194829 | 9 | 193 | 3.2 | 8.0 | 0.00 | 0.00 | 0.00 | 47 | 1018.9 |
| 20260507194350 | 9 | 188 | 3.2 | 9.7 | 0.00 | 0.00 | 0.00 | 49 | 1018.9 |
| 20260507193830 | 10 | 206 | 3.2 | 11.3 | 0.00 | 0.00 | 0.00 | 49 | 1018.8 |
| 20260507193331 | 10 | 171 | 3.2 | 6.4 | 0.00 | 0.00 | 0.00 | 48 | 1018.7 |
| 20260507192831 | 10 | 155 | 4.8 | 12.9 | 0.00 | 0.00 | 0.00 | 47 | 1018.6 |
| 20260507192352 | 10 | 144 | 3.2 | 8.0 | 0.00 | 0.00 | 0.00 | 47 | 1018.5 |
| 20260507191839 | 10 | 183 | 3.2 | 8.0 | 0.00 | 0.00 | 0.00 | 47 | 1018.4 |
| 20260507191328 | 11 | 186 | 1.6 | 8.0 | 0.00 | 0.00 | 0.00 | 47 | 1018.3 |
| 20260507190828 | 11 | 186 | 3.2 | 8.0 | 0.00 | 0.00 | 0.00 | 44 | 1018.3 |
| 20260507190328 | 11 | 199 | 3.2 | 9.7 | 0.00 | 0.00 | 0.00 | 42 | 1018.1 |
| 20260507185829 | 11 | 192 | 3.2 | 11.3 | 0.00 | 0.00 | 0.00 | 42 | 1018.1 |
| 20260507185329 | 12 | 197 | 3.2 | 14.5 | 0.00 | 0.00 | 0.00 | 41 | 1018.0 |
| 20260507184830 | 12 | 212 | 6.4 | 14.5 | 0.00 | 0.00 | 0.00 | 41 | 1017.9 |
| 20260507184330 | 12 | 165 | 6.4 | 14.5 | 0.00 | 0.00 | 0.00 | 42 | 1017.9 |
| 20260507183830 | 12 | 183 | 4.8 | 12.9 | 0.00 | 0.00 | 0.00 | 42 | 1017.8 |
| 20260507183330 | 12 | 218 | 4.8 | 9.7 | 0.00 | 0.00 | 0.00 | 41 | 1017.7 |
| 20260507182826 | 13 | 175 | 4.8 | 11.3 | 0.00 | 0.00 | 0.00 | 40 | 1017.7 |
| 20260507182353 | 13 | 159 | 4.8 | 11.3 | 0.00 | 0.00 | 0.00 | 41 | 1017.6 |
| 20260507181840 | 13 | 174 | 4.8 | 11.3 | 0.00 | 0.00 | 0.00 | 41 | 1017.5 |
| 20260507181325 | 13 | 144 | 4.8 | 9.7 | 0.00 | 0.00 | 0.00 | 42 | 1017.5 |
| 20260507180825 | 13 | 184 | 6.4 | 11.3 | 0.00 | 0.00 | 0.00 | 43 | 1017.4 |
| 20260507180334 | 13 | 171 | 1.6 | 3.2 | 0.00 | 0.00 | 0.00 | 40 | 1017.3 |
| 20260507175824 | 14 | 161 | 0.0 | 4.8 | 0.00 | 0.00 | 0.00 | 39 | 1017.3 |
| 20260507175331 | 14 | 170 | 3.2 | 6.4 | 0.00 | 0.00 | 0.00 | 40 | 1017.2 |
| 20260507174857 | 14 | 170 | 3.2 | 6.4 | 0.00 | 0.00 | 0.00 | 39 | 1017.2 |
| 20260507174403 | 14 | 163 | 1.6 | 8.0 | 0.00 | 0.00 | 0.00 | 40 | 1017.1 |
| 20260507173829 | 14 | 157 | 3.2 | 6.4 | 0.00 | 0.00 | 0.00 | 39 | 1017.1 |
| 20260507173336 | 13 | 157 | 3.2 | 6.4 | 0.00 | 0.00 | 0.00 | 38 | 1017.1 |
| 20260507172826 | 13 | 130 | 3.2 | 4.8 | 0.00 | 0.00 | 0.00 | 42 | 1017.0 |
| 20260507172326 | 13 | 130 | 1.6 | 4.8 | 0.00 | 0.00 | 0.00 | 41 | 1017.0 |
| 20260507171846 | 13 | 129 | 1.6 | 4.8 | 0.00 | 0.00 | 0.00 | 41 | 1016.9 |
| 20260507171326 | 13 | 103 | 1.6 | 3.2 | 0.00 | 0.00 | 0.00 | 44 | 1016.8 |
| 20260507170826 | 13 | 103 | 1.6 | 4.8 | 0.00 | 0.00 | 0.00 | 43 | 1016.8 |
| 20260507170326 | 14 | 103 | 1.6 | 9.7 | 0.00 | 0.00 | 0.00 | 42 | 1016.8 |
| 20260507165835 | 14 | 103 | 4.8 | 9.7 | 0.00 | 0.00 | 0.00 | 40 | 1016.7 |
| 20260507165324 | 14 | 113 | 1.6 | 11.3 | 0.00 | 0.00 | 0.00 | 42 | 1016.7 |
| 20260507164826 | 14 | 83 | 4.8 | 11.3 | 0.00 | 0.00 | 0.00 | 40 | 1016.7 |
| 20260507164325 | 15 | 118 | 6.4 | 12.9 | 0.00 | 0.00 | 0.00 | 39 | 1016.6 |
| 20260507163826 | 15 | 102 | 3.2 | 14.5 | 0.00 | 0.00 | 0.00 | 41 | 1016.6 |
| 20260507163327 | 15 | 123 | 6.4 | 14.5 | 0.00 | 0.00 | 0.00 | 40 | 1016.5 |
| 20260507162827 | 15 | 109 | 8.0 | 14.5 | 0.00 | 0.00 | 0.00 | 40 | 1016.4 |
| 20260507162327 | 15 | 145 | 6.4 | 14.5 | 0.00 | 0.00 | 0.00 | 39 | 1016.5 |
| 20260507161828 | 15 | 115 | 6.4 | 16.1 | 0.00 | 0.00 | 0.00 | 40 | 1016.5 |
| 20260507161330 | 15 | 75 | 4.8 | 12.9 | 0.00 | 0.00 | 0.00 | 41 | 1016.4 |
| 20260507160830 | 15 | 145 | 4.8 | 16.1 | 0.00 | 0.00 | 0.00 | 40 | 1016.4 |
| 20260507160330 | 15 | 156 | 6.4 | 12.9 | 0.00 | 0.00 | 0.00 | 41 | 1016.4 |
| 20260507155850 | 15 | 87 | 6.4 | 12.9 | 0.00 | 0.00 | 0.00 | 43 | 1016.4 |
| 20260507155329 | 14 | 120 | 1.6 | 8.0 | 0.00 | 0.00 | 0.00 | 40 | 1016.4 |
| 20260507154830 | 14 | 153 | 0.0 | 8.0 | 0.00 | 0.00 | 0.00 | 41 | 1016.3 |
| 20260507154330 | 14 | 132 | 1.6 | 11.3 | 0.00 | 0.00 | 0.00 | 42 | 1016.3 |
| 20260507153831 | 15 | 132 | 3.2 | 11.3 | 0.00 | 0.00 | 0.00 | 43 | 1016.3 |
| 20260507153333 | 15 | 182 | 3.2 | 12.9 | 0.00 | 0.00 | 0.00 | 40 | 1016.3 |
| 20260507152900 | 14 | 104 | 3.2 | 9.7 | 0.00 | 0.00 | 0.00 | 42 | 1016.3 |
| 20260507152328 | 14 | 94 | 4.8 | 6.4 | 0.00 | 0.00 | 0.00 | 46 | 1016.3 |
| 20260507151849 | 14 | 94 | 1.6 | 9.7 | 0.00 | 0.00 | 0.00 | 44 | 1016.3 |
| 20260507151328 | 14 | 94 | 3.2 | 9.7 | 0.00 | 0.00 | 0.00 | 47 | 1016.3 |
| 20260507150828 | 14 | 56 | 4.8 | 8.0 | 0.00 | 0.00 | 0.00 | 45 | 1016.3 |
| 20260507150328 | 15 | 53 | 4.8 | 11.3 | 0.00 | 0.00 | 0.00 | 42 | 1016.2 |
| 20260507145856 | 15 | 79 | 4.8 | 11.3 | 0.00 | 0.00 | 0.00 | 43 | 1016.2 |
| 20260507145324 | 15 | 105 | 6.4 | 11.3 | 0.00 | 0.00 | 0.00 | 41 | 1016.2 |
| 20260507144852 | 15 | 88 | 6.4 | 14.5 | 0.00 | 0.00 | 0.00 | 41 | 1016.2 |
| 20260507144351 | 15 | 106 | 8.0 | 16.1 | 0.00 | 0.00 | 0.00 | 42 | 1016.1 |
| 20260507143830 | 15 | 133 | 9.7 | 16.1 | 0.00 | 0.00 | 0.00 | 42 | 1016.1 |
| 20260507143332 | 15 | 96 | 4.8 | 16.1 | 0.00 | 0.00 | 0.00 | 43 | 1016.1 |
| 20260507142839 | 15 | 65 | 8.0 | 16.1 | 0.00 | 0.00 | 0.00 | 42 | 1016.1 |
| 20260507142328 | 15 | 96 | 9.7 | 16.1 | 0.00 | 0.00 | 0.00 | 43 | 1016.0 |
| 20260507141829 | 15 | 156 | 4.8 | 14.5 | 0.00 | 0.00 | 0.00 | 46 | 1016.0 |
| 20260507141349 | 15 | 126 | 8.0 | 14.5 | 0.00 | 0.00 | 0.00 | 44 | 1016.0 |
| 20260507140849 | 15 | 111 | 8.0 | 14.5 | 0.00 | 0.00 | 0.00 | 44 | 1016.0 |
| 20260507140328 | 15 | 123 | 6.4 | 16.1 | 0.00 | 0.00 | 0.00 | 44 | 1015.9 |
| 20260507135828 | 15 | 136 | 8.0 | 16.1 | 0.00 | 0.00 | 0.00 | 42 | 1015.9 |
| 20260507135335 | 15 | 60 | 1.6 | 12.9 | 0.00 | 0.00 | 0.00 | 44 | 1015.9 |
| 20260507134824 | 15 | 84 | 4.8 | 16.1 | 0.00 | 0.00 | 0.00 | 43 | 1015.8 |
| 20260507134330 | 15 | 121 | 8.0 | 17.7 | 0.00 | 0.00 | 0.00 | 43 | 1015.9 |
| 20260507133846 | 15 | 95 | 6.4 | 17.7 | 0.00 | 0.00 | 0.00 | 42 | 1015.8 |
| 20260507133325 | 15 | 51 | 4.8 | 9.7 | 0.00 | 0.00 | 0.00 | 45 | 1015.8 |
| 20260507132824 | 15 | 76 | 3.2 | 12.9 | 0.00 | 0.00 | 0.00 | 44 | 1015.8 |
| 20260507132325 | 15 | 47 | 4.8 | 12.9 | 0.00 | 0.00 | 0.00 | 41 | 1015.8 |
| 20260507131825 | 15 | 360 | 4.8 | 9.7 | 0.00 | 0.00 | 0.00 | 40 | 1015.8 |
| 20260507131326 | 16 | 16 | 1.6 | 11.3 | 0.00 | 0.00 | 0.00 | 41 | 1015.8 |
| 20260507130826 | 16 | 43 | 6.4 | 11.3 | 0.00 | 0.00 | 0.00 | 39 | 1015.8 |
| 20260507130327 | 16 | 11 | 3.2 | 12.9 | 0.00 | 0.00 | 0.00 | 39 | 1015.8 |
| 20260507125827 | 16 | 18 | 4.8 | 20.9 | 0.00 | 0.00 | 0.00 | 40 | 1015.8 |
| 20260507125327 | 16 | 24 | 8.0 | 20.9 | 0.00 | 0.00 | 0.00 | 41 | 1015.6 |
| 20260507124828 | 16 | 105 | 3.2 | 12.9 | 0.00 | 0.00 | 0.00 | 40 | 1015.7 |
| 20260507124328 | 16 | 355 | 4.8 | 8.0 | 0.00 | 0.00 | 0.00 | 39 | 1015.7 |
| 20260507123828 | 16 | 41 | 1.6 | 11.3 | 0.00 | 0.00 | 0.00 | 40 | 1015.7 |
| 20260507123349 | 16 | 40 | 1.6 | 9.7 | 0.00 | 0.00 | 0.00 | 41 | 1015.7 |
| 20260507122830 | 16 | 355 | 3.2 | 12.9 | 0.00 | 0.00 | 0.00 | 41 | 1015.6 |
| 20260507122331 | 16 | 350 | 8.0 | 12.9 | 0.00 | 0.00 | 0.00 | 42 | 1015.6 |
| 20260507121852 | 16 | 87 | 1.6 | 11.3 | 0.00 | 0.00 | 0.00 | 43 | 1015.6 |
| 20260507121331 | 16 | 137 | 4.8 | 12.9 | 0.00 | 0.00 | 0.00 | 45 | 1015.6 |
| 20260507120831 | 15 | 122 | 6.4 | 12.9 | 0.00 | 0.00 | 0.00 | 44 | 1015.6 |
| 20260507120352 | 15 | 54 | 4.8 | 14.5 | 0.00 | 0.00 | 0.00 | 43 | 1015.6 |
| 20260507115852 | 16 | 13 | 6.4 | 14.5 | 0.00 | 0.00 | 0.00 | 41 | 1015.7 |
| 20260507115332 | 16 | 45 | 8.0 | 12.9 | 0.00 | 0.00 | 0.00 | 43 | 1015.6 |
| 20260507114832 | 16 | 19 | 6.4 | 14.5 | 0.00 | 0.00 | 0.00 | 42 | 1015.6 |
| 20260507114331 | 16 | 5 | 4.8 | 14.5 | 0.00 | 0.00 | 0.00 | 44 | 1015.6 |
| 20260507113831 | 16 | 360 | 3.2 | 19.3 | 0.00 | 0.00 | 0.00 | 43 | 1015.6 |
| 20260507113331 | 16 | 330 | 8.0 | 19.3 | 0.00 | 0.00 | 0.00 | 42 | 1015.6 |
| 20260507112840 | 16 | 69 | 3.2 | 14.5 | 0.00 | 0.00 | 0.00 | 41 | 1015.6 |
| 20260507112328 | 16 | 163 | 4.8 | 9.7 | 0.00 | 0.00 | 0.00 | 43 | 1015.7 |
| 20260507111828 | 16 | 307 | 4.8 | 12.9 | 0.00 | 0.00 | 0.00 | 40 | 1015.7 |
| 20260507111349 | 16 | 355 | 3.2 | 14.5 | 0.00 | 0.00 | 0.00 | 40 | 1015.6 |
| 20260507110829 | 16 | 117 | 9.7 | 14.5 | 0.00 | 0.00 | 0.00 | 42 | 1015.6 |
| 20260507110328 | 16 | 55 | 4.8 | 12.9 | 0.00 | 0.00 | 0.00 | 40 | 1015.6 |
| 20260507105829 | 16 | 349 | 6.4 | 12.9 | 0.00 | 0.00 | 0.00 | 41 | 1015.6 |
| 20260507105346 | 16 | 323 | 4.8 | 8.0 | 0.00 | 0.00 | 0.00 | 43 | 1015.5 |
| 20260507104833 | 16 | 104 | 1.6 | 8.0 | 0.00 | 0.00 | 0.00 | 45 | 1015.6 |
| 20260507104340 | 16 | 78 | 3.2 | 8.0 | 0.00 | 0.00 | 0.00 | 45 | 1015.5 |
| 20260507103829 | 15 | 360 | 3.2 | 9.7 | 0.00 | 0.00 | 0.00 | 44 | 1015.5 |
| 20260507103336 | 15 | 65 | 6.4 | 9.7 | 0.00 | 0.00 | 0.00 | 45 | 1015.4 |
| 20260507102824 | 15 | 336 | 3.2 | 8.0 | 0.00 | 0.00 | 0.00 | 49 | 1015.4 |
| 20260507102345 | 15 | 297 | 1.6 | 8.0 | 0.00 | 0.00 | 0.00 | 47 | 1015.4 |
| 20260507101824 | 15 | 355 | 3.2 | 8.0 | 0.00 | 0.00 | 0.00 | 47 | 1015.5 |
| 20260507101325 | 15 | 34 | 1.6 | 12.9 | 0.00 | 0.00 | 0.00 | 48 | 1015.4 |
| 20260507100826 | 15 | 360 | 4.8 | 12.9 | 0.00 | 0.00 | 0.00 | 48 | 1015.4 |
| 20260507100327 | 15 | 37 | 4.8 | 12.9 | 0.00 | 0.00 | 0.00 | 48 | 1015.3 |
| 20260507095827 | 14 | 57 | 4.8 | 12.9 | 0.00 | 0.00 | 0.00 | 49 | 1015.3 |
| 20260507095348 | 14 | 42 | 4.8 | 9.7 | 0.00 | 0.00 | 0.00 | 51 | 1015.2 |
| 20260507094827 | 14 | 323 | 4.8 | 14.5 | 0.00 | 0.00 | 0.00 | 50 | 1015.3 |
| 20260507094328 | 14 | 355 | 6.4 | 14.5 | 0.00 | 0.00 | 0.00 | 52 | 1015.2 |
| 20260507093849 | 14 | 350 | 4.8 | 12.9 | 0.00 | 0.00 | 0.00 | 49 | 1015.2 |
| 20260507093349 | 15 | 360 | 4.8 | 16.1 | 0.00 | 0.00 | 0.00 | 49 | 1015.2 |
| 20260507092829 | 15 | 345 | 4.8 | 16.1 | 0.00 | 0.00 | 0.00 | 49 | 1015.2 |
| 20260507092330 | 15 | 337 | 3.2 | 9.7 | 0.00 | 0.00 | 0.00 | 50 | 1015.2 |
| 20260507091850 | 15 | 86 | 3.2 | 9.7 | 0.00 | 0.00 | 0.00 | 48 | 1015.2 |
| 20260507091330 | 15 | 360 | 4.8 | 12.9 | 0.00 | 0.00 | 0.00 | 48 | 1015.1 |
| 20260507090831 | 15 | 53 | 4.8 | 12.9 | 0.00 | 0.00 | 0.00 | 47 | 1015.1 |
| 20260507090331 | 15 | 350 | 1.6 | 9.7 | 0.00 | 0.00 | 0.00 | 48 | 1015.1 |
| 20260507085840 | 14 | 169 | 4.8 | 9.7 | 0.00 | 0.00 | 0.00 | 50 | 1015.1 |
| 20260507085329 | 13 | 144 | 4.8 | 8.0 | 0.00 | 0.00 | 0.00 | 51 | 1015.2 |
| 20260507084830 | 13 | 114 | 4.8 | 9.7 | 0.00 | 0.00 | 0.00 | 54 | 1015.2 |
| 20260507084351 | 12 | 161 | 1.6 | 8.0 | 0.00 | 0.00 | 0.00 | 55 | 1015.2 |
| 20260507083830 | 12 | 313 | 4.8 | 8.0 | 0.00 | 0.00 | 0.00 | 52 | 1015.2 |
| 20260507083331 | 12 | 53 | 3.2 | 9.7 | 0.00 | 0.00 | 0.00 | 51 | 1015.3 |
| 20260507082831 | 12 | 52 | 4.8 | 9.7 | 0.00 | 0.00 | 0.00 | 53 | 1015.2 |
| 20260507082332 | 12 | 360 | 3.2 | 6.4 | 0.00 | 0.00 | 0.00 | 53 | 1015.2 |
| 20260507081832 | 12 | 355 | 3.2 | 6.4 | 0.00 | 0.00 | 0.00 | 55 | 1015.2 |
| 20260507081340 | 12 | 349 | 1.6 | 4.8 | 0.00 | 0.00 | 0.00 | 54 | 1015.2 |
| 20260507080828 | 11 | 346 | 0.0 | 4.8 | 0.00 | 0.00 | 0.00 | 58 | 1015.2 |
| 20260507080330 | 11 | 345 | 1.6 | 4.8 | 0.00 | 0.00 | 0.00 | 56 | 1015.2 |
| 20260507075829 | 11 | 292 | 3.2 | 6.4 | 0.00 | 0.00 | 0.00 | 55 | 1015.2 |
| 20260507075331 | 11 | 292 | 3.2 | 6.4 | 0.00 | 0.00 | 0.00 | 55 | 1015.2 |
| 20260507074830 | 10 | 249 | 1.6 | 4.8 | 0.00 | 0.00 | 0.00 | 57 | 1015.2 |
| 20260507074351 | 10 | 138 | 1.6 | 4.8 | 0.00 | 0.00 | 0.00 | 57 | 1015.2 |
| 20260507073831 | 9 | 138 | 1.6 | 11.3 | 0.00 | 0.00 | 0.00 | 63 | 1015.2 |
| 20260507073339 | 8 | 136 | 4.8 | 11.3 | 0.00 | 0.00 | 0.00 | 65 | 1015.1 |
| 20260507072828 | 8 | 123 | 4.8 | 11.3 | 0.00 | 0.00 | 0.00 | 67 | 1015.1 |
| 20260507072329 | 7 | 150 | 3.2 | 11.3 | 0.00 | 0.00 | 0.00 | 70 | 1015.1 |
| 20260507071830 | 6 | 168 | 3.2 | 8.0 | 0.00 | 0.00 | 0.00 | 72 | 1015.1 |
| 20260507071351 | 6 | 168 | 3.2 | 4.8 | 0.00 | 0.00 | 0.00 | 75 | 1015.2 |
| 20260507070837 | 6 | 287 | 0.0 | 3.2 | 0.00 | 0.00 | 0.00 | 78 | 1015.1 |
| 20260507070325 | 6 | 288 | 0.0 | 0.0 | 0.00 | 0.00 | 0.00 | 79 | 1015.2 |
| 20260507065833 | 6 | 288 | 0.0 | 1.6 | 0.00 | 0.00 | 0.00 | 80 | 1015.1 |
| 20260507065339 | 6 | 288 | 0.0 | 1.6 | 0.00 | 0.00 | 0.00 | 81 | 1015.1 |
| 20260507064828 | 5 | 288 | 0.0 | 1.6 | 0.00 | 0.00 | 0.00 | 81 | 1015.0 |
| 20260507064329 | 5 | 288 | 1.6 | 1.6 | 0.00 | 0.00 | 0.00 | 84 | 1015.0 |
| 20260507063830 | 5 | 288 | 0.0 | 3.2 | 0.00 | 0.00 | 0.00 | 83 | 1015.0 |
| 20260507063351 | 5 | 288 | 1.6 | 3.2 | 0.00 | 0.00 | 0.00 | 82 | 1014.9 |
| 20260507062831 | 5 | 288 | 1.6 | 3.2 | 0.00 | 0.00 | 0.00 | 82 | 1015.0 |
| 20260507062331 | 5 | 288 | 0.0 | 0.0 | 0.00 | 0.00 | 0.00 | 84 | 1014.9 |
| 20260507061831 | 5 | 288 | 0.0 | 0.0 | 0.00 | 0.00 | 0.00 | 83 | 1014.9 |
| 20260507061331 | 5 | 288 | 0.0 | 0.0 | 0.00 | 0.00 | 0.00 | 82 | 1014.8 |
| 20260507060832 | 5 | 288 | 0.0 | 0.0 | 0.00 | 0.00 | 0.00 | 82 | 1014.8 |
| 20260507060400 | 5 | 288 | 0.0 | 0.0 | 0.00 | 0.00 | 0.00 | 81 | 1014.7 |
| 20260507055829 | 5 | 288 | 0.0 | 0.0 | 0.00 | 0.00 | 0.00 | 79 | 1014.7 |
| 20260507055329 | 6 | 288 | 0.0 | 1.6 | 0.00 | 0.00 | 0.00 | 78 | 1014.7 |
| 20260507054829 | 6 | 288 | 0.0 | 1.6 | 0.00 | 0.00 | 0.00 | 78 | 1014.7 |
| 20260507054346 | 6 | 288 | 1.6 | 3.2 | 0.00 | 0.00 | 0.00 | 76 | 1014.7 |
| 20260507053826 | 6 | 288 | 1.6 | 3.2 | 0.00 | 0.00 | 0.00 | 75 | 1014.6 |
| 20260507053326 | 6 | 288 | 1.6 | 3.2 | 0.00 | 0.00 | 0.00 | 74 | 1014.5 |
| 20260507052827 | 6 | 286 | 0.0 | 3.2 | 0.00 | 0.00 | 0.00 | 74 | 1014.5 |
| 20260507052347 | 6 | 286 | 3.2 | 3.2 | 0.00 | 0.00 | 0.00 | 73 | 1014.4 |
| 20260507051848 | 6 | 286 | 0.0 | 3.2 | 0.00 | 0.00 | 0.00 | 71 | 1014.4 |
| 20260507051329 | 5 | 286 | 1.6 | 3.2 | 0.00 | 0.00 | 0.00 | 72 | 1014.4 |
| 20260507050849 | 5 | 286 | 0.0 | 3.2 | 0.00 | 0.00 | 0.00 | 74 | 1014.3 |
| 20260507050329 | 5 | 287 | 1.6 | 3.2 | 0.00 | 0.00 | 0.00 | 76 | 1014.3 |
| 20260507045835 | 5 | 287 | 0.0 | 0.0 | 0.00 | 0.00 | 0.00 | 78 | 1014.2 |
| 20260507045325 | 4 | 287 | 0.0 | 1.6 | 0.00 | 0.00 | 0.00 | 79 | 1014.3 |
| 20260507044826 | 4 | 287 | 0.0 | 1.6 | 0.00 | 0.00 | 0.00 | 82 | 1014.3 |
| 20260507044326 | 4 | 287 | 0.0 | 3.2 | 0.00 | 0.00 | 0.00 | 80 | 1014.3 |
| 20260507043826 | 3 | 287 | 1.6 | 3.2 | 0.00 | 0.00 | 0.00 | 79 | 1014.2 |
| 20260507043327 | 3 | 287 | 0.0 | 3.2 | 0.00 | 0.00 | 0.00 | 78 | 1014.2 |
| 20260507042835 | 3 | 287 | 1.6 | 3.2 | 0.00 | 0.00 | 0.00 | 80 | 1014.2 |
| 20260507042325 | 3 | 287 | 0.0 | 1.6 | 0.00 | 0.00 | 0.00 | 80 | 1014.1 |
| 20260507041825 | 3 | 287 | 0.0 | 3.2 | 0.00 | 0.00 | 0.00 | 82 | 1014.0 |
| 20260507041331 | 3 | 287 | 0.0 | 3.2 | 0.00 | 0.00 | 0.00 | 82 | 1014.1 |
| 20260507040840 | 2 | 160 | 1.6 | 3.2 | 0.00 | 0.00 | 0.00 | 82 | 1014.0 |
| 20260507040328 | 2 | 160 | 1.6 | 3.2 | 0.00 | 0.00 | 0.00 | 80 | 1013.9 |
| 20260507035836 | 2 | 160 | 0.0 | 0.0 | 0.00 | 0.00 | 0.00 | 82 | 1013.9 |
| 20260507035324 | 2 | 160 | 0.0 | 0.0 | 0.00 | 0.00 | 0.00 | 80 | 1013.8 |
| 20260507034824 | 2 | 160 | 0.0 | 0.0 | 0.00 | 0.00 | 0.00 | 80 | 1013.7 |
| 20260507034346 | 2 | 160 | 0.0 | 0.0 | 0.00 | 0.00 | 0.00 | 80 | 1013.8 |
| 20260507033826 | 2 | 160 | 0.0 | 0.0 | 0.00 | 0.00 | 0.00 | 81 | 1013.7 |
| 20260507033325 | 2 | 160 | 0.0 | 0.0 | 0.00 | 0.00 | 0.00 | 81 | 1013.8 |
| 20260507032826 | 2 | 160 | 0.0 | 0.0 | 0.00 | 0.00 | 0.00 | 82 | 1013.7 |
| 20260507032335 | 2 | 160 | 0.0 | 0.0 | 0.00 | 0.00 | 0.00 | 80 | 1013.8 |
| 20260507031825 | 2 | 160 | 0.0 | 0.0 | 0.00 | 0.00 | 0.00 | 80 | 1013.8 |
| 20260507031346 | 2 | 160 | 0.0 | 0.0 | 0.00 | 0.00 | 0.00 | 78 | 1013.7 |
| 20260507030826 | 2 | 160 | 0.0 | 0.0 | 0.00 | 0.00 | 0.00 | 78 | 1013.8 |
| 20260507030335 | 2 | 160 | 0.0 | 0.0 | 0.00 | 0.00 | 0.00 | 77 | 1013.8 |
| 20260507025824 | 2 | 160 | 0.0 | 0.0 | 0.00 | 0.00 | 0.00 | 78 | 1013.8 |
| 20260507025326 | 2 | 160 | 0.0 | 0.0 | 0.00 | 0.00 | 0.00 | 77 | 1013.8 |
| 20260507024827 | 2 | 160 | 0.0 | 0.0 | 0.00 | 0.00 | 0.00 | 76 | 1013.8 |
| 20260507024328 | 3 | 160 | 0.0 | 0.0 | 0.00 | 0.00 | 0.00 | 75 | 1013.8 |
| 20260507023849 | 3 | 160 | 0.0 | 0.0 | 0.00 | 0.00 | 0.00 | 74 | 1013.8 |
| 20260507023349 | 3 | 160 | 0.0 | 0.0 | 0.00 | 0.00 | 0.00 | 72 | 1013.8 |
| 20260507022828 | 3 | 160 | 0.0 | 4.8 | 0.00 | 0.00 | 0.00 | 72 | 1013.8 |
| 20260507022349 | 3 | 160 | 1.6 | 8.0 | 0.00 | 0.00 | 0.00 | 71 | 1013.8 |
| 20260507021829 | 3 | 180 | 3.2 | 9.7 | 0.00 | 0.00 | 0.00 | 69 | 1013.7 |
| 20260507021350 | 3 | 195 | 1.6 | 9.7 | 0.00 | 0.00 | 0.00 | 69 | 1013.7 |
| 20260507020830 | 3 | 196 | 0.0 | 3.2 | 0.00 | 0.00 | 0.00 | 71 | 1013.7 |
| 20260507020331 | 3 | 196 | 1.6 | 3.2 | 0.00 | 0.00 | 0.00 | 71 | 1013.7 |
| 20260507015831 | 3 | 196 | 1.6 | 3.2 | 0.00 | 0.00 | 0.00 | 69 | 1013.7 |
| 20260507015352 | 3 | 196 | 0.0 | 1.6 | 0.00 | 0.00 | 0.00 | 68 | 1013.7 |
| 20260507014831 | 4 | 196 | 0.0 | 1.6 | 0.00 | 0.00 | 0.00 | 66 | 1013.6 |
| 20260507014329 | 4 | 196 | 1.6 | 3.2 | 0.00 | 0.00 | 0.00 | 64 | 1013.6 |
| 20260507013839 | 4 | 196 | 0.0 | 3.2 | 0.00 | 0.00 | 0.00 | 63 | 1013.7 |
| 20260507013328 | 5 | 196 | 0.0 | 4.8 | 0.00 | 0.00 | 0.00 | 62 | 1013.6 |